User: anonymous   Login
Location: Unspecified
(0.0000°N, 0.0000°E)
Time: 20:27:32
(UTC+00:00)
Language:

WGS 8 (USA 272) - Orbit

View from above orbital plane
View from above orbital plane
View from above satellite
View from above satellite

Ground track
Ground track

The orbit data is extracted from the following two-line orbital elements,

1 41879U 16075A   21136.72606740 -.00000194  00000-0  00000-0 0  9998
2 41879   0.0103 312.2530 0000208  78.5755 255.0071  1.00271769 16200
Epoch (UTC): 16 May 2021 17:25:32
Eccentricity: 0.0000208
inclination: 0.0103°
perigee height: 35785 km
apogee height: 35787 km
right ascension of ascending node: 312.2530°
argument of perigee: 78.5755°
revolutions per day: 1.00271769
mean anomaly at epoch: 255.0071°
orbit number at epoch: 1620

The dashed part of the orbit path shows where the satellite is in the earth's shadow,  

DLR